Theta_e
337 335 334 334 333 330 330 329 329 329 330 332 332 331 329 328 330 329 329 329 327 327 327 326 326 324 320 320 319 316 315 314 313 313 314 317 317 318 321 325 331 336 340
340 337 336 336 333 331 330 330 330 330 329 328 328 328 328 330 330 329 328 329 327 326 326 324 324 326 320 320 318 316 315 315 315 312 315 315 316 317 319 322 326 333 337
341 337 332 329 329 330 330 329 329 328 327 328 326 324 327 328 328 329 329 329 327 327 326 323 323 323 320 318 318 317 317 318 316 316 316 316 316 317 318 321 322 325 334
340 338 330 327 327 329 330 329 329 328 327 326 326 328 328 327 327 328 328 328 327 326 325 324 324 322 321 319 318 318 317 315 314 315 316 315 314 316 318 317 317 322 325
339 336 332 331 329 328 329 329 329 328 328 327 328 328 328 328 330 329 329 327 325 324 325 325 324 325 328 324 321 319 316 315 316 317 315 313 313 314 314 317 317 319 321
337 336 334 333 331 330 331 330 329 328 327 327 328 328 326 329 328 328 325 321 321 321 320 321 321 327 327 328 327 327 323 315 315 315 314 313 314 315 317 316 316 315 314
335 334 333 333 332 332 332 330 329 328 326 327 327 325 326 326 324 323 328 320 318 317 317 318 320 324 326 322 323 324 323 323 323 316 314 315 315 317 317 316 316 316 316
333 333 334 334 333 332 330 329 329 329 328 328 325 327 326 325 324 321 325 319 318 318 319 319 318 319 319 319 317 314 314 315 316 317 316 318 318 318 318 317 317 317 318
332 332 333 334 333 331 329 329 330 328 327 327 328 328 324 325 321 319 320 318 317 316 315 317 318 317 317 316 313 311 311 313 318 318 318 318 318 318 319 318 316 315 313
332 333 334 334 332 330 330 331 332 330 328 331 329 327 322 324 318 316 317 317 313 312 315 316 317 314 312 311 310 309 312 314 313 314 315 316 318 318 319 320 317 315 315
333 332 332 334 333 332 332 333 331 328 324 323 324 324 323 321 319 314 313 313 313 313 311 310 311 310 307 307 307 306 309 311 313 314 314 315 316 316 317 319 319 319 316
329 328 327 323 332 336 333 331 327 325 323 322 322 320 320 317 313 313 313 310 314 309 309 309 308 306 306 306 307 308 308 311 312 311 311 312 313 314 315 317 320 322 322
326 326 323 325 324 326 331 329 325 322 320 319 319 317 314 314 310 309 309 310 311 307 308 307 308 304 306 308 309 310 311 310 309 308 307 309 312 314 315 317 320 321 323
324 324 324 322 322 327 328 327 324 321 318 317 316 313 310 306 305 306 307 306 308 306 305 301 307 309 308 308 306 307 308 309 308 307 308 310 312 312 312 316 316 317 321
324 325 324 325 327 322 314 313 316 306 310 312 310 310 311 305 304 300 300 303 304 302 299 305 306 306 305 301 301 302 305 305 303 305 307 307 308 308 311 314 316 316 314
318 323 323 326 321 313 310 306 301 299 298 297 301 302 301 301 298 297 295 295 295 296 301 301 300 299 298 297 296 297 299 301 300 303 305 306 306 307 308 312 313 313 313
325 324 322 320 319 312 308 308 306 305 300 297 296 298 299 298 295 295 294 295 297 300 298 295 294 293 293 292 292 293 294 298 298 301 303 304 306 306 307 308 309 310 311
322 315 317 318 318 313 310 308 306 304 303 302 299 299 297 297 296 295 297 298 298 295 293 292 292 290 289 289 290 291 294 296 298 297 299 299 300 305 304 304 306 306 307
321 318 318 318 318 316 315 313 311 308 307 304 302 300 298 297 297 296 297 300 297 292 291 290 291 290 289 289 290 291 292 292 295 294 295 296 297 300 302 303 304 303 304
318 316 317 314 314 312 310 310 309 308 306 303 302 300 300 300 299 298 297 296 295 294 293 292 292 291 290 290 288 287 290 290 291 291 292 293 295 295 297 301 302 302 303
318 314 317 314 314 312 310 310 309 306 304 302 301 301 297 299 298 297 296 295 295 295 294 293 290 290 288 285 284 285 286 288 288 288 290 291 293 293 294 296 298 302 302
314 314 316 314 312 311 310 308 307 308 304 302 299 300 296 297 297 297 296 296 296 295 293 290 288 286 284 283 283 283 283 284 285 286 287 289 292 292 293 293 294 297 299
313 313 312 311 309 309 309 310 312 309 306 305 302 301 298 297 296 296 297 297 295 292 290 289 286 284 283 283 282 282 281 281 282 284 285 288 290 291 292 291 292 293 295
309 308 307 306 306 305 305 306 305 306 308 306 303 301 298 297 297 296 296 294 292 291 289 287 285 283 282 281 280 280 280 281 282 282 285 288 289 289 291 291 291 292 293
306 306 305 305 304 304 304 304 302 301 302 303 304 301 299 298 296 296 295 292 290 289 288 287 285 284 283 281 280 280 282 284 283 285 286 287 288 289 289 289 289 291 292
302 303 304 304 304 303 302 301 301 300 300 298 298 298 300 298 296 295 292 290 289 288 288 287 286 285 284 283 282 283 282 283 283 284 287 286 286 287 288 288 289 289 289
Wind_Speed
13 11 9 8 8 8 7 7 6 5 5 4 5 5 6 5 5 4 5 6 5 4 4 6 7 6 4 4 4 3 3 3 6 5 3 9 12 13 13 12 14 14 11
13 11 10 8 8 8 7 8 7 7 5 6 6 6 6 6 6 5 6 5 5 6 6 5 7 4 6 6 4 6 5 5 4 11 6 7 11 14 12 15 12 13 13
11 11 7 9 9 9 8 7 7 7 7 6 6 6 7 7 6 6 7 7 6 7 7 6 7 7 7 5 6 5 5 5 5 6 10 8 9 11 12 10 11 12 13
13 13 11 11 10 9 8 8 8 7 7 7 7 7 7 7 6 7 6 6 7 7 6 6 7 7 9 8 6 8 6 6 4 7 8 10 10 11 10 10 12 9 11
15 14 14 12 9 9 8 8 8 7 7 7 7 7 7 5 5 7 5 5 5 6 6 6 6 9 14 10 5 8 7 5 6 7 10 10 10 11 13 12 12 12 12
15 14 10 9 8 10 10 10 8 8 7 6 7 7 7 4 6 9 7 5 5 5 6 7 6 8 9 12 13 16 11 6 9 6 9 11 15 12 13 12 12 12 14
15 12 11 11 10 12 12 8 9 9 6 7 7 7 7 6 8 10 8 5 6 6 5 5 6 5 9 6 7 10 9 11 10 4 9 12 14 15 15 17 16 12 14
13 13 14 14 14 12 10 10 9 5 7 8 6 6 6 6 10 9 8 6 5 5 4 5 5 8 6 5 4 5 6 6 6 6 7 12 15 16 16 18 19 18 15
15 15 14 14 13 10 10 9 9 5 5 3 1 5 5 9 8 7 6 4 5 5 4 6 5 6 4 2 2 5 7 7 6 12 17 19 25 26 25 16 13 12 14
15 17 13 12 11 12 12 11 10 4 5 6 6 5 8 7 8 8 7 1 2 3 4 5 2 2 0 4 3 5 8 10 10 12 13 15 19 19 26 18 12 15 12
13 11 8 8 14 15 13 7 6 5 6 5 3 6 5 8 7 10 3 1 2 2 4 4 3 3 4 3 2 2 5 9 10 9 10 11 13 15 16 14 12 10 11
10 11 12 11 12 12 9 6 8 6 5 4 5 4 5 4 1 3 5 5 2 1 3 2 3 5 3 3 2 5 8 8 6 7 8 10 12 15 18 17 16 8 11
12 8 10 16 12 20 5 6 6 5 4 4 4 2 2 3 3 6 6 5 4 1 2 5 4 5 1 3 6 9 7 5 6 7 8 9 11 14 20 16 13 12 10
6 7 8 10 8 14 4 5 6 4 3 3 3 3 3 2 1 3 2 3 5 4 6 5 3 4 3 4 4 5 4 4 6 7 7 9 10 12 15 15 12 13 2
8 9 9 6 11 7 2 3 3 1 2 4 3 4 5 3 2 2 2 3 3 3 5 3 2 2 3 4 4 4 4 4 5 6 7 7 9 11 12 14 13 9 8
5 4 6 5 5 5 5 3 10 8 6 7 8 6 3 5 2 5 9 9 8 5 1 3 2 3 3 4 4 5 4 7 5 7 7 6 7 9 11 12 12 12 10
9 5 5 8 7 7 5 5 5 5 10 11 9 9 7 7 2 7 7 3 5 6 3 3 2 2 2 3 4 4 5 7 6 5 6 7 7 8 11 10 12 11 12
3 2 4 4 6 7 6 6 5 6 5 3 2 2 5 4 5 7 5 5 3 5 2 2 2 2 2 3 3 3 5 7 7 7 7 7 7 7 9 10 11 11 11
1 1 4 4 5 6 5 5 5 5 5 4 2 0 3 3 4 4 6 3 2 2 2 2 1 1 2 3 3 4 4 5 7 7 8 7 8 6 6 8 8 13 12
3 3 7 4 5 4 4 6 6 6 5 5 4 3 1 4 1 0 1 2 2 2 2 1 1 1 2 2 4 4 4 5 6 6 7 8 8 6 6 6 7 8 8
1 1 5 4 5 5 5 5 6 5 5 4 3 3 5 4 4 3 3 2 3 3 1 1 3 3 3 3 3 4 4 4 4 5 6 7 7 7 7 6 6 6 7
5 4 4 4 4 5 4 4 4 4 5 6 4 3 9 3 4 4 4 3 3 3 3 4 4 4 3 3 4 4 4 4 5 6 6 6 7 7 7 7 7 7 8
4 5 4 3 3 4 4 4 4 5 7 7 6 5 4 4 4 5 4 2 3 4 4 4 5 4 3 3 4 4 4 4 4 4 5 6 6 7 6 5 6 7 8
5 5 5 4 4 3 3 3 3 5 8 7 7 7 5 5 5 5 3 4 5 5 4 5 4 5 4 3 2 2 1 3 3 4 4 4 5 6 6 4 5 8 8
4 3 4 5 4 3 3 3 2 3 3 5 7 6 6 5 5 5 5 5 5 5 5 5 4 6 6 5 2 2 4 5 5 7 3 5 6 8 5 4 5 5 8
2 1 4 4 4 5 5 4 5 5 5 5 5 6 7 7 6 5 5 5 5 5 7 5 6 8 7 4 2 2 4 6 6 7 4 4 5 5 5 6 8 4 6
Wind_Direction
177 171 176 180 178 166 179 189 193 206 224 223 230 233 238 245 255 257 259 253 248 254 233 216 223 192 199 197 198 193 213 189 270 277 246 295 301 304 303 300 294 280 265
175 179 189 174 178 175 186 193 194 207 208 212 221 228 240 241 233 226 245 253 242 258 248 233 234 201 216 211 207 217 219 217 229 278 293 288 293 302 295 297 295 291 267
170 173 187 182 181 182 187 193 195 202 217 228 228 239 247 242 244 246 240 244 233 236 241 224 237 210 224 223 219 224 227 232 233 258 287 290 289 295 293 288 286 289 278
171 179 182 183 183 179 179 191 197 200 210 222 234 239 239 250 252 253 249 246 245 244 249 233 233 218 223 223 222 234 237 245 243 265 282 288 288 296 291 296 294 286 293
176 181 189 190 176 177 183 199 204 205 211 217 229 241 248 248 248 244 237 222 240 266 273 261 246 236 238 229 214 240 234 241 256 271 284 283 293 303 297 299 284 285 280
176 185 190 181 179 193 198 203 203 215 216 219 236 243 253 252 253 203 199 220 241 241 260 269 261 268 269 247 242 235 228 219 251 257 274 279 290 288 297 288 283 284 284
175 175 184 180 199 202 204 199 211 218 202 222 230 226 247 250 239 226 214 220 235 249 274 289 291 272 265 263 271 270 275 277 253 250 264 277 286 288 294 286 277 259 263
179 189 191 190 206 202 200 209 217 201 203 218 228 259 241 250 239 228 232 235 264 290 284 281 277 290 288 270 276 289 277 269 269 269 264 281 285 284 285 278 279 267 257
177 197 192 196 196 193 206 208 214 193 188 112 106 293 307 278 258 243 211 247 273 300 302 291 288 280 291 281 296 292 288 281 268 277 280 280 282 277 281 282 274 261 251
181 197 191 194 197 201 207 205 212 169 163 157 207 236 268 262 266 230 218 203 290 288 302 297 279 235 53 12 337 311 303 303 313 310 305 305 302 297 300 286 274 272 219
182 197 209 197 206 206 203 181 160 118 109 107 223 239 244 224 227 234 217 152 242 308 302 299 258 192 123 58 60 350 293 303 301 300 304 303 302 310 310 297 285 250 213
70 71 60 15 348 278 161 130 129 126 123 199 221 232 220 151 231 168 153 191 226 211 286 293 236 165 154 66 32 320 324 329 318 312 310 312 312 314 313 316 318 259 215
110 120 123 50 3 326 329 123 117 129 165 222 228 227 170 78 70 59 68 57 40 59 268 311 281 178 128 348 2 357 337 335 322 325 319 316 312 311 315 321 330 338 221
100 79 76 119 172 259 235 148 151 194 174 189 181 135 130 138 74 16 359 344 350 4 337 322 202 168 62 4 354 328 326 331 326 315 319 313 310 323 324 334 341 349 360
162 181 165 199 193 182 46 38 94 343 200 151 144 149 151 176 232 219 287 315 319 4 329 36 84 32 18 354 321 330 325 332 325 324 319 324 335 330 324 330 342 357 8
193 142 129 197 169 175 139 122 55 72 73 89 115 120 64 111 145 281 271 256 259 258 100 82 60 25 21 350 346 334 325 333 317 328 316 324 343 326 328 338 345 355 7
197 204 146 154 162 163 160 163 140 38 44 50 90 120 116 136 30 350 9 121 165 116 94 79 79 36 3 353 354 339 320 322 316 317 316 330 330 339 347 345 345 353 359
51 22 121 186 165 151 149 145 160 154 141 133 4 84 118 104 49 18 88 64 46 31 72 103 82 57 28 6 356 335 323 324 337 328 334 343 339 331 357 352 351 356 352
173 151 171 146 133 131 140 153 147 144 140 139 115 194 214 206 81 35 61 105 125 105 104 95 131 83 3 344 343 331 340 336 342 343 337 340 341 340 352 348 353 352 359
99 120 121 132 125 136 139 132 134 137 145 155 154 175 159 101 116 149 79 113 124 128 152 172 282 301 320 347 349 1 5 3 348 344 336 334 338 344 341 339 354 354 351
38 153 141 143 144 144 147 147 145 145 154 157 148 174 173 143 163 176 175 163 152 158 176 54 55 73 63 30 23 24 21 4 348 343 335 333 334 341 339 344 353 4 4
135 141 136 140 139 147 155 146 151 149 159 154 164 182 147 128 162 176 197 190 182 155 140 122 102 96 84 61 49 45 33 12 349 346 335 329 337 347 348 355 3 8 20
113 102 102 124 146 151 153 168 170 174 174 167 165 167 161 168 182 191 184 174 156 139 132 115 113 97 82 76 70 69 46 1 329 314 322 333 346 350 355 349 1 11 12
121 132 133 137 143 160 148 168 205 181 172 173 170 176 173 176 186 191 173 144 140 140 135 129 128 130 112 91 68 60 13 324 308 312 321 345 354 357 12 4 8 11 21
107 131 154 173 171 188 214 207 192 203 196 161 172 172 175 173 176 185 175 166 146 141 151 143 136 137 131 123 105 26 347 345 352 337 358 14 26 22 10 15 8 12 24
107 166 213 193 203 204 204 209 228 209 209 184 172 172 173 177 179 181 179 166 156 156 158 161 161 155 149 153 146 29 7 10 9 357 15 25 35 26 26 19 23 21 24